UAL7012 DAAG-LEVC

Flight info

Callsign UAL7012
Flight time 0h 58m
Altitude 35000
Route SADAF1A IZA M134 XOSTA/N0449F370 M134 NINOT
Aircraft B738/M-SDE2E3FGHIRWXY/LB1

Departure

Time 2026-05-04 23:39
Airport Houari Boumediene Airport (DAAG)

Arrival

Time 2026-05-05 00:37
Airport Valencia Airport (LEVC)
Time Latitude Longitude Altitude Speed Heading
2026-05-04 23:21 36.69642 3.21629 76 ft 0 kts 111°
2026-05-04 23:31 36.69645 3.21620 77 ft 2 kts 112°
2026-05-04 23:31 36.69651 3.21601 68 ft 2 kts 117°
2026-05-04 23:32 36.69660 3.21583 74 ft 2 kts 125°
2026-05-04 23:32 36.69670 3.21567 65 ft 2 kts 136°
2026-05-04 23:32 36.69683 3.21555 71 ft 2 kts 156°
2026-05-04 23:32 36.69699 3.21549 72 ft 2 kts 172°
2026-05-04 23:33 36.69707 3.21548 73 ft 0 kts 166°
2026-05-04 23:33 36.69689 3.21558 71 ft 8 kts 154°
2026-05-04 23:34 36.69612 3.21615 72 ft 17 kts 129°
2026-05-04 23:34 36.69591 3.21787 75 ft 24 kts 76°
2026-05-04 23:34 36.69701 3.21983 78 ft 32 kts 52°
2026-05-04 23:34 36.69781 3.22111 72 ft 13 kts 52°
2026-05-04 23:35 36.69859 3.22236 78 ft 23 kts 52°
2026-05-04 23:35 36.69977 3.22428 79 ft 32 kts 52°
2026-05-04 23:35 36.70128 3.22671 83 ft 39 kts 52°
2026-05-04 23:35 36.70296 3.22950 83 ft 36 kts 53°
2026-05-04 23:36 36.70459 3.23219 85 ft 42 kts 52°
2026-05-04 23:36 36.70652 3.23530 83 ft 48 kts 52°
2026-05-04 23:36 36.70812 3.23789 85 ft 15 kts 52°
2026-05-04 23:36 36.70894 3.23929 87 ft 25 kts 58°
2026-05-04 23:37 36.70991 3.24148 88 ft 33 kts 64°
2026-05-04 23:37 36.71105 3.24428 87 ft 40 kts 63°
2026-05-04 23:37 36.71269 3.24736 87 ft 46 kts 52°
2026-05-04 23:37 36.71335 3.24842 92 ft 15 kts 52°
2026-05-04 23:38 36.71399 3.24986 89 ft 22 kts 101°
2026-05-04 23:38 36.71285 3.25100 91 ft 17 kts 191°
2026-05-04 23:38 36.71250 3.25070 93 ft 7 kts 230°
2026-05-04 23:38 36.71168 3.24948 89 ft 47 kts 231°
2026-05-04 23:39 36.70791 3.24337 87 ft 128 kts 232°
2026-05-04 23:39 36.70123 3.23217 187 ft 185 kts 233°
2026-05-04 23:39 36.69292 3.21885 831 ft 203 kts 233°
2026-05-04 23:39 36.68797 3.20218 1420 ft 215 kts 269°
2026-05-04 23:40 36.69341 3.18354 1632 ft 251 kts 310°
2026-05-04 23:40 36.70782 3.17196 1822 ft 242 kts 342°
2026-05-04 23:40 36.72313 3.16659 1984 ft 215 kts 342°
2026-05-04 23:40 36.73641 3.16100 2124 ft 189 kts 339°
2026-05-04 23:41 36.74831 3.15515 2317 ft 187 kts 337°
2026-05-04 23:41 36.76111 3.14821 2568 ft 213 kts 335°
2026-05-04 23:41 36.77524 3.13994 2784 ft 234 kts 334°
2026-05-04 23:41 36.79006 3.13066 2930 ft 241 kts 332°
2026-05-04 23:42 36.80461 3.12102 3138 ft 239 kts 331°
2026-05-04 23:42 36.81917 3.11094 3351 ft 240 kts 330°
2026-05-04 23:42 36.83370 3.10056 3547 ft 241 kts 329°
2026-05-04 23:42 36.84819 3.08993 3753 ft 242 kts 329°
2026-05-04 23:43 36.86263 3.07915 3955 ft 242 kts 328°
2026-05-04 23:43 36.87709 3.06820 4157 ft 243 kts 328°
2026-05-04 23:43 36.89154 3.05714 4355 ft 243 kts 328°
2026-05-04 23:43 36.90594 3.04603 4559 ft 244 kts 328°
2026-05-04 23:44 36.92035 3.03485 4761 ft 244 kts 328°
2026-05-04 23:44 36.93480 3.02359 4958 ft 244 kts 327°
2026-05-04 23:44 36.94434 3.01612 5093 ft 245 kts 327°
2026-05-04 23:44 36.95881 3.00478 5293 ft 245 kts 327°
2026-05-04 23:45 36.97328 2.99341 5495 ft 246 kts 327°
2026-05-04 23:45 36.98780 2.98198 5696 ft 247 kts 327°
2026-05-04 23:45 37.00234 2.97053 5897 ft 247 kts 327°
2026-05-04 23:45 37.02167 2.95527 6164 ft 249 kts 327°
2026-05-04 23:46 37.03157 2.94745 6300 ft 249 kts 327°
2026-05-04 23:46 37.04573 2.93625 6494 ft 250 kts 327°
2026-05-04 23:46 37.06098 2.92418 6702 ft 251 kts 327°
2026-05-04 23:46 37.07556 2.91263 6900 ft 252 kts 327°
2026-05-04 23:47 37.09059 2.90073 7103 ft 253 kts 327°
2026-05-04 23:47 37.10525 2.88911 7301 ft 253 kts 327°
2026-05-04 23:47 37.11976 2.87759 7495 ft 254 kts 327°
2026-05-04 23:47 37.13469 2.86575 7699 ft 254 kts 327°
2026-05-04 23:48 37.14958 2.85392 7895 ft 255 kts 327°
2026-05-04 23:48 37.16426 2.84226 8091 ft 256 kts 327°
2026-05-04 23:48 37.17972 2.82997 8296 ft 256 kts 327°
2026-05-04 23:48 37.19482 2.81796 8500 ft 257 kts 327°
2026-05-04 23:49 37.20994 2.80593 8702 ft 258 kts 327°
2026-05-04 23:49 37.22513 2.79384 8899 ft 259 kts 327°
2026-05-04 23:49 37.24033 2.78173 9095 ft 260 kts 327°
2026-05-04 23:49 37.25559 2.76957 9301 ft 260 kts 327°
2026-05-04 23:50 37.27094 2.75734 9499 ft 261 kts 327°
2026-05-04 23:50 37.28615 2.74521 9701 ft 262 kts 327°
2026-05-04 23:50 37.30159 2.73288 9902 ft 263 kts 327°
2026-05-04 23:50 37.31707 2.72053 10102 ft 264 kts 327°
2026-05-04 23:51 37.33259 2.70813 10293 ft 265 kts 327°
2026-05-04 23:51 37.34814 2.69570 10504 ft 265 kts 327°
2026-05-04 23:51 37.36340 2.68350 10699 ft 266 kts 327°
2026-05-04 23:51 37.37941 2.67069 10904 ft 267 kts 327°
2026-05-04 23:52 37.39470 2.65846 11100 ft 268 kts 327°
2026-05-04 23:52 37.41039 2.64589 11300 ft 268 kts 327°
2026-05-04 23:52 37.42659 2.63292 11506 ft 269 kts 327°
2026-05-04 23:52 37.44237 2.62027 11706 ft 270 kts 327°
2026-05-04 23:53 37.45827 2.60751 11907 ft 271 kts 327°
2026-05-04 23:53 37.47395 2.59493 12105 ft 271 kts 327°
2026-05-04 23:53 37.48997 2.58207 12307 ft 272 kts 327°
2026-05-04 23:53 37.50597 2.56922 12507 ft 273 kts 327°
2026-05-04 23:54 37.52208 2.55628 12709 ft 274 kts 327°
2026-05-04 23:54 37.53789 2.54356 12908 ft 275 kts 327°
2026-05-04 23:54 37.55440 2.53027 13112 ft 276 kts 327°
2026-05-04 23:54 37.57064 2.51721 13315 ft 277 kts 327°
2026-05-04 23:55 37.58692 2.50409 13514 ft 278 kts 327°
2026-05-04 23:55 37.60329 2.49090 13763 ft 285 kts 327°
2026-05-04 23:55 37.63918 2.46195 14065 ft 327 kts 327°
2026-05-04 23:56 37.65863 2.44625 14218 ft 346 kts 327°
2026-05-04 23:56 37.67935 2.42951 14361 ft 365 kts 327°
2026-05-04 23:56 37.70136 2.41172 14489 ft 382 kts 327°
2026-05-04 23:56 37.72424 2.39321 14635 ft 398 kts 327°
2026-05-04 23:57 37.74788 2.37408 14970 ft 407 kts 327°
2026-05-04 23:57 37.77187 2.35465 15494 ft 410 kts 327°
2026-05-04 23:57 37.79595 2.33513 16058 ft 412 kts 327°
2026-05-04 23:57 37.82028 2.31566 16572 ft 415 kts 328°
2026-05-04 23:58 37.84505 2.29664 17061 ft 418 kts 329°
2026-05-04 23:58 37.87014 2.27770 17540 ft 421 kts 329°
2026-05-04 23:58 37.89544 2.25869 18003 ft 424 kts 329°
2026-05-04 23:58 37.92089 2.23951 18477 ft 427 kts 329°
2026-05-04 23:59 37.94645 2.22017 18916 ft 430 kts 329°
2026-05-04 23:59 37.97217 2.20064 19351 ft 432 kts 329°
2026-05-04 23:59 37.99806 2.18091 19774 ft 435 kts 329°
2026-05-04 23:59 38.02408 2.16104 20186 ft 438 kts 328°
2026-05-05 00:00 38.04989 2.14131 20590 ft 440 kts 328°
2026-05-05 00:00 38.06766 2.12771 20846 ft 442 kts 328°
2026-05-05 00:00 38.10268 2.10088 21353 ft 445 kts 328°
2026-05-05 00:00 38.12937 2.08041 21715 ft 448 kts 328°
2026-05-05 00:01 38.15611 2.05990 22060 ft 450 kts 328°
2026-05-05 00:01 38.18299 2.03925 22402 ft 452 kts 328°
2026-05-05 00:01 38.21003 2.01847 22734 ft 455 kts 328°
2026-05-05 00:01 38.23719 1.99758 23057 ft 457 kts 328°
2026-05-05 00:02 38.26441 1.97662 23370 ft 459 kts 328°
2026-05-05 00:02 38.29178 1.95553 23675 ft 461 kts 328°
2026-05-05 00:02 38.31934 1.93427 23972 ft 463 kts 328°
2026-05-05 00:02 38.34699 1.91291 24262 ft 465 kts 328°
2026-05-05 00:03 38.37472 1.89149 24543 ft 467 kts 328°
2026-05-05 00:03 38.40255 1.86996 24819 ft 469 kts 328°
2026-05-05 00:03 38.43012 1.84862 25084 ft 471 kts 328°
2026-05-05 00:03 38.45815 1.82690 25344 ft 473 kts 328°
2026-05-05 00:04 38.48563 1.80558 25591 ft 475 kts 328°
2026-05-05 00:04 38.51454 1.78314 25837 ft 476 kts 328°
2026-05-05 00:04 38.54291 1.76109 26072 ft 478 kts 328°
2026-05-05 00:04 38.57132 1.73900 26321 ft 479 kts 328°
2026-05-05 00:05 38.59972 1.71689 26652 ft 478 kts 328°
2026-05-05 00:05 38.62715 1.69552 26981 ft 477 kts 328°
2026-05-05 00:05 38.65647 1.67265 26985 ft 480 kts 328°
2026-05-05 00:05 38.68429 1.65092 27001 ft 478 kts 328°
2026-05-05 00:06 38.71332 1.62824 27001 ft 476 kts 328°
2026-05-05 00:06 38.74160 1.60612 27005 ft 476 kts 328°
2026-05-05 00:06 38.76876 1.58485 27004 ft 475 kts 328°
2026-05-05 00:06 38.79810 1.56186 27003 ft 475 kts 328°
2026-05-05 00:07 38.82631 1.53973 27002 ft 475 kts 328°
2026-05-05 00:07 38.85446 1.51762 27002 ft 475 kts 328°
2026-05-05 00:07 38.88266 1.49545 27002 ft 475 kts 328°
2026-05-05 00:07 38.90851 1.46938 26982 ft 474 kts 311°
2026-05-05 00:08 38.92681 1.43505 27001 ft 473 kts 295°
2026-05-05 00:08 38.93836 1.39670 27022 ft 473 kts 289°
2026-05-05 00:08 38.94991 1.35586 27000 ft 474 kts 290°
2026-05-05 00:08 38.96116 1.31745 27002 ft 474 kts 290°
2026-05-05 00:09 38.97339 1.27645 26995 ft 475 kts 291°
2026-05-05 00:09 38.98531 1.23687 26996 ft 476 kts 291°
2026-05-05 00:09 38.99727 1.19723 26998 ft 476 kts 291°
2026-05-05 00:09 39.00923 1.15755 27000 ft 476 kts 291°
2026-05-05 00:10 39.02119 1.11779 26892 ft 478 kts 291°
2026-05-05 00:10 39.03313 1.07797 26407 ft 475 kts 291°
2026-05-05 00:10 39.04488 1.03868 25929 ft 465 kts 291°
2026-05-05 00:10 39.05637 1.00019 25458 ft 457 kts 291°
2026-05-05 00:11 39.06765 0.96232 24982 ft 449 kts 291°
2026-05-05 00:11 39.07874 0.92508 24525 ft 442 kts 291°
2026-05-05 00:11 39.08966 0.88834 24064 ft 435 kts 291°
2026-05-05 00:11 39.10025 0.85264 23620 ft 429 kts 291°
2026-05-05 00:12 39.11081 0.81706 23170 ft 423 kts 291°
2026-05-05 00:12 39.12122 0.78188 22729 ft 417 kts 291°
2026-05-05 00:12 39.13147 0.74724 22298 ft 412 kts 290°
2026-05-05 00:12 39.14158 0.71299 21869 ft 406 kts 290°
2026-05-05 00:13 39.15154 0.67914 21433 ft 401 kts 290°
2026-05-05 00:13 39.16136 0.64570 21021 ft 397 kts 290°
2026-05-05 00:13 39.17106 0.61264 20606 ft 392 kts 290°
2026-05-05 00:13 39.18068 0.57986 20193 ft 388 kts 290°
2026-05-05 00:14 39.19016 0.54750 19783 ft 384 kts 290°
2026-05-05 00:14 39.19951 0.51553 19379 ft 380 kts 290°
2026-05-05 00:14 39.20806 0.48353 18972 ft 376 kts 282°
2026-05-05 00:14 39.20924 0.45051 18831 ft 364 kts 266°
2026-05-05 00:15 39.20785 0.41833 18636 ft 355 kts 268°
2026-05-05 00:15 39.20699 0.38689 18472 ft 347 kts 268°
2026-05-05 00:15 39.20633 0.35608 18299 ft 341 kts 268°
2026-05-05 00:15 39.20573 0.32551 18149 ft 341 kts 268°
2026-05-05 00:16 39.20513 0.29495 17985 ft 341 kts 268°
2026-05-05 00:16 39.20452 0.26443 17831 ft 340 kts 268°
2026-05-05 00:16 39.20389 0.23400 17670 ft 341 kts 268°
2026-05-05 00:16 39.20324 0.20339 17499 ft 341 kts 268°
2026-05-05 00:17 39.20261 0.17400 17350 ft 341 kts 268°
2026-05-05 00:17 39.20193 0.14257 17182 ft 342 kts 268°
2026-05-05 00:17 39.20125 0.11191 17018 ft 342 kts 268°
2026-05-05 00:17 39.20056 0.08129 16855 ft 342 kts 268°
2026-05-05 00:18 39.19986 0.05068 16691 ft 341 kts 268°
2026-05-05 00:18 39.19916 0.02004 16527 ft 341 kts 268°
2026-05-05 00:18 39.19844 -0.01053 16364 ft 340 kts 268°
2026-05-05 00:18 39.19773 -0.04100 16201 ft 339 kts 268°
2026-05-05 00:19 39.19700 -0.07136 16039 ft 338 kts 268°
2026-05-05 00:19 39.19628 -0.10160 15878 ft 336 kts 268°
2026-05-05 00:19 39.19555 -0.13131 15720 ft 335 kts 268°
2026-05-05 00:19 39.19482 -0.16128 15560 ft 334 kts 268°
2026-05-05 00:20 39.19407 -0.19114 15400 ft 333 kts 268°
2026-05-05 00:20 39.19333 -0.22090 15243 ft 332 kts 268°
2026-05-05 00:20 39.19257 -0.25055 15087 ft 331 kts 268°
2026-05-05 00:20 39.19182 -0.28012 14930 ft 330 kts 268°
2026-05-05 00:21 39.19106 -0.30963 14768 ft 329 kts 268°
2026-05-05 00:21 39.19028 -0.33919 14614 ft 328 kts 268°
2026-05-05 00:21 39.18951 -0.36856 14459 ft 328 kts 268°
2026-05-05 00:21 39.18873 -0.39780 14305 ft 327 kts 268°
2026-05-05 00:22 39.18796 -0.42677 14149 ft 327 kts 268°
2026-05-05 00:22 39.18717 -0.45598 14001 ft 326 kts 268°
2026-05-05 00:22 39.18637 -0.48520 13838 ft 325 kts 268°
2026-05-05 00:22 39.18574 -0.51358 13685 ft 325 kts 271°
2026-05-05 00:23 39.18803 -0.54321 13523 ft 324 kts 281°
2026-05-05 00:23 39.19336 -0.57137 13380 ft 323 kts 286°
2026-05-05 00:23 39.20016 -0.59901 13227 ft 323 kts 289°
2026-05-05 00:23 39.20796 -0.62615 13066 ft 322 kts 292°
2026-05-05 00:24 39.21696 -0.65261 12913 ft 322 kts 295°
2026-05-05 00:24 39.22723 -0.67824 12757 ft 322 kts 299°
2026-05-05 00:24 39.23901 -0.70276 12609 ft 321 kts 304°
2026-05-05 00:24 39.25227 -0.72592 12458 ft 321 kts 309°
2026-05-05 00:25 39.26691 -0.74767 12301 ft 321 kts 313°
2026-05-05 00:25 39.28255 -0.76769 12151 ft 321 kts 317°
2026-05-05 00:25 39.29971 -0.78668 12000 ft 320 kts 321°
2026-05-05 00:25 39.31693 -0.80312 11855 ft 320 kts 325°
2026-05-05 00:26 39.33643 -0.81901 11695 ft 319 kts 330°
2026-05-05 00:26 39.35565 -0.83217 11554 ft 313 kts 334°
2026-05-05 00:26 39.37541 -0.84339 11413 ft 310 kts 338°
2026-05-05 00:26 39.39581 -0.85275 11294 ft 311 kts 342°
2026-05-05 00:27 39.41579 -0.85985 11559 ft 287 kts 346°
2026-05-05 00:27 39.43489 -0.86490 11401 ft 272 kts 350°
2026-05-05 00:27 39.45305 -0.86805 11299 ft 255 kts 354°
2026-05-05 00:27 39.47020 -0.86962 11196 ft 238 kts 357°
2026-05-05 00:28 39.48642 -0.87007 10959 ft 230 kts 360°
2026-05-05 00:28 39.50240 -0.86946 10593 ft 227 kts
2026-05-05 00:28 39.51767 -0.86785 10416 ft 214 kts
2026-05-05 00:28 39.53220 -0.86536 10309 ft 208 kts
2026-05-05 00:29 39.54645 -0.86199 10219 ft 209 kts 11°
2026-05-05 00:29 39.56066 -0.85776 10124 ft 210 kts 13°
2026-05-05 00:29 39.57448 -0.85299 10031 ft 211 kts 15°
2026-05-05 00:29 39.58868 -0.84719 9918 ft 212 kts 19°
2026-05-05 00:30 39.60245 -0.84042 9819 ft 212 kts 22°
2026-05-05 00:30 39.61540 -0.83189 9689 ft 213 kts 38°
2026-05-05 00:30 39.62459 -0.81678 9579 ft 210 kts 68°
2026-05-05 00:30 39.62715 -0.79841 9493 ft 208 kts 95°
2026-05-05 00:31 39.62491 -0.78012 9329 ft 205 kts 92°
2026-05-05 00:31 39.62480 -0.76183 8981 ft 201 kts 100°
2026-05-05 00:31 39.61812 -0.74665 8503 ft 194 kts 145°
2026-05-05 00:31 39.60752 -0.73721 8131 ft 181 kts 139°
2026-05-05 00:32 39.59894 -0.72582 7715 ft 171 kts 132°
2026-05-05 00:32 39.59385 -0.71817 7340 ft 169 kts 130°
2026-05-05 00:32 39.58403 -0.70239 6563 ft 167 kts 128°
2026-05-05 00:32 39.57933 -0.69453 6185 ft 166 kts 128°
2026-05-05 00:33 39.57236 -0.68264 5617 ft 165 kts 127°
2026-05-05 00:33 39.56552 -0.67081 5055 ft 163 kts 127°
2026-05-05 00:33 39.55878 -0.65904 4508 ft 162 kts 127°
2026-05-05 00:33 39.55244 -0.64706 3953 ft 161 kts 120°
2026-05-05 00:34 39.54733 -0.63424 3422 ft 159 kts 117°
2026-05-05 00:34 39.54244 -0.62139 2988 ft 160 kts 116°
2026-05-05 00:34 39.53781 -0.60919 2831 ft 139 kts 116°
2026-05-05 00:34 39.53390 -0.59891 2681 ft 117 kts 117°
2026-05-05 00:35 39.53014 -0.58906 2363 ft 135 kts 116°
2026-05-05 00:35 39.52555 -0.57693 2458 ft 157 kts 116°
2026-05-05 00:35 39.52085 -0.56439 2918 ft 138 kts 114°
2026-05-05 00:35 39.51778 -0.55347 2460 ft 140 kts 109°
2026-05-05 00:36 39.51394 -0.54027 1611 ft 164 kts 112°
2026-05-05 00:36 39.50843 -0.52731 1097 ft 158 kts 127°
2026-05-05 00:36 39.50264 -0.51605 687 ft 149 kts 120°
2026-05-05 00:36 39.49839 -0.50477 454 ft 130 kts 117°
2026-05-05 00:37 39.49440 -0.49499 243 ft 113 kts 121°
2026-05-05 00:37 39.49115 -0.48677 219 ft 95 kts 115°
2026-05-05 00:37 39.48884 -0.48032 210 ft 53 kts 117°
2026-05-05 00:37 39.48731 -0.47621 205 ft 48 kts 115°
2026-05-05 00:38 39.48654 -0.47303 192 ft 30 kts 83°
2026-05-05 00:38 39.48808 -0.47196 195 ft 28 kts 336°
2026-05-05 00:38 39.48928 -0.47261 198 ft 12 kts 351°
2026-05-05 00:38 39.48975 -0.47242 199 ft 0 kts 20°